Flag for Germany Weather past 2 weeks in Neuruppin, Brandenburg, Germany

Now
57 °F

Low clouds.


Feels Like: 57 °F
Forecast: 56 / 74 °F
Wind: 2 mph from Southwest

Location: Neuruppin

Current Time: May 4, 2015 at 6:08:06 AM

Latest Report: May 4, 2015 at 5:00 AM


Visibility: 6 mi

Pressure: 29.66 "Hg

Humidity: 97%

Dew point: 56 °F

Location of NeuruppinLocation

Historic Weather in Neuruppin — Graph

°F

Neuruppin temperature yesterday

Maximum temperature yesterday: 64 °F (at 6:00 PM)
Minimum temperature yesterday: 39 °F (at 4:00 AM)
Average temperature yesterday: 53 °F

Past Weeks' High & Low Weather Summary

 TemperatureHumidityPressure
High70 °F (Apr 25, 3:00 PM)99% (Apr 24, 7:00 AM)30.33 "Hg (Apr 24, 7:00 AM)
Low34 °F (Apr 29, 6:00 AM)22% (Apr 21, 1:00 PM)29.60 "Hg (Apr 27, 9:00 AM)
Average50 °F70%29.96 "Hg
* Reported Apr 19 4:00 AM — May 4 4:00 AM, Neuruppin, Weather by CustomWeather, © 2015

Note: Actual official high and low records may vary slightly from our data, if they occured in-between our weather recording intervals... More about our weather records

Advertising

Neuruppin weather history for previous 24 hours

 ConditionsComfort  
Time TempWeatherWind HumidityBarometerVisibility
4:00 AM
Mon, May 4
56 °FLow clouds.2 mph98%29.65 "Hg5 mi
3:00 AM56 °FLow clouds.3 mph98%29.64 "Hg3 mi
2:00 AM55 °FLow clouds.3 mph98%29.65 "Hg6 mi
1:00 AM55 °FLow clouds.3 mph98%29.65 "Hg3 mi
12:00 AM55 °FOvercast.7 mph92%29.66 "Hg6 mi
10:00 PM
Sun, May 3
58 °FOvercast.6 mph75%29.69 "Hg6 mi
9:00 PM63 °FOvercast.5 mph51%29.68 "Hg6 mi
8:00 PM64 °FOvercast.5 mph46%29.69 "Hg6 mi
7:00 PM64 °FOvercast.6 mph46%29.71 "Hg6 mi
6:00 PM64 °FOvercast.7 mph43%29.72 "Hg6 mi
4:00 PM64 °FPassing clouds.8 mph38%29.78 "Hg6 mi
3:00 PM63 °FSunny.8 mph38%29.79 "Hg6 mi
2:00 PM62 °FSunny.6 mph38%29.81 "Hg6 mi
1:00 PM62 °FPartly sunny.7 mph38%29.83 "Hg6 mi
12:00 PM60 °FSunny.6 mph44%29.85 "Hg6 mi
11:00 AM58 °FSunny.6 mph46%29.88 "Hg6 mi
10:00 AM56 °FSunny.3 mph56%29.90 "Hg6 mi
9:00 AM51 °FSunny.3 mph68%29.90 "Hg6 mi
8:00 AM44 °FSunny.3 mph83%29.89 "Hg6 mi
7:00 AM40 °FSunny.1 mph89%29.90 "Hg6 mi
6:00 AM39 °FSunny.1 mph92%29.90 "Hg6 mi
Weather by CustomWeather, © 2015

See weather overviewHow to use our weather pages